Tracking 32938 objects as of 13-Jan-2026
HD Live streaming from Space Station
objects crossing your sky now

OPS 8068

Track OPS 8068 now!
10-day predictions
OPS 8068 is classified as:


NORAD ID: 1580
Int'l Code: 1965-072A
Perigee: 635.5 km
Apogee: 965.3 km
Inclination: 98.4 °
Period: 100.7 minutes
Semi major axis: 7171 km
RCS: 0.631 m2 (medium)
Launch date: September 10, 1965
Source: United States (US)
Launch site: AIR FORCE WESTERN TEST RANGE (AFWTR)
Your satellite tracking list
Your tracking list is empty




NASA's NSSDC Master Catalog

Two Line Element Set (TLE):
1  1580U 65072A   26012.72612624  .00000445  00000-0  14447-3 0  9991
2  1580  98.3957 174.4011 0229896 144.8114 216.8498 14.29541053110806
Source of the keplerian elements: AFSPC